Wind_Speed
17 17 17 16 16 17 18 18 19 18 19 20 21 22 23 24 25 25 26 27 28 29 29 30 31 32 33 34 34 34 35 35 36 37 38 39 39 40 41 42 42 43 43 44
20 19 20 19 18 19 20 20 20 21 21 22 24 24 25 26 27 28 29 29 30 31 31 32 32 33 34 35 36 36 36 37 37 38 39 40 40 41 41 42 43 44 44 44
24 23 23 22 21 22 22 23 23 23 23 24 25 26 26 27 29 29 30 31 32 32 33 34 34 35 36 36 37 38 38 39 39 40 41 41 42 42 43 43 44 45 45 45
28 27 27 26 25 25 25 25 26 26 26 26 27 28 29 30 31 32 32 33 34 35 35 36 36 37 38 38 38 39 39 40 40 41 42 43 44 44 44 44 44 44 44 45
31 31 31 29 28 28 29 28 28 29 29 29 30 30 31 32 32 33 34 34 35 36 37 38 38 39 39 40 40 40 41 41 42 42 43 44 44 44 44 44 44 44 44 44
35 35 35 33 32 32 33 32 31 31 31 32 32 33 33 34 35 35 36 36 37 38 39 39 39 40 40 40 40 41 41 42 42 43 43 44 44 44 44 44 44 45 44 44
38 38 38 36 35 35 34 35 34 34 34 34 34 35 35 36 37 38 38 39 39 39 39 40 40 41 41 41 41 42 42 43 43 44 44 44 44 44 44 45 45 45 45 46
41 41 40 39 38 38 37 37 37 37 37 37 37 37 37 38 39 39 40 40 40 40 40 40 41 41 41 41 42 42 42 43 44 44 45 45 45 45 45 46 46 46 46 46
43 42 42 41 41 41 41 40 40 40 40 40 40 39 39 40 40 40 41 41 41 41 41 41 41 41 41 41 42 42 43 43 44 45 45 46 46 46 46 46 47 47 47 47
45 43 43 43 43 43 42 42 42 42 41 41 41 41 41 41 41 41 41 42 42 42 42 42 42 42 42 42 43 43 43 44 44 45 45 46 46 46 47 47 47 47 47 48
46 44 45 44 44 44 44 44 43 43 43 43 43 42 42 42 42 42 42 42 43 43 42 42 42 42 43 43 43 43 44 45 45 45 46 46 46 47 47 47 48 48 48 48
46 46 46 45 45 45 45 45 44 44 44 44 44 44 43 43 43 43 43 43 43 43 43 43 43 43 44 44 44 45 45 45 46 46 46 47 47 47 47 47 48 48 49 49
47 46 46 45 45 45 45 45 45 44 44 44 44 44 44 44 44 44 44 44 44 44 44 44 44 44 44 45 45 45 46 46 46 46 47 47 47 48 47 48 48 49 49 49
46 46 45 45 46 46 46 45 45 45 45 44 44 44 44 44 44 44 45 45 45 45 45 45 45 45 45 45 46 46 46 47 47 47 47 48 48 49 49 49 48 48 48 48
45 46 46 46 46 46 46 45 44 44 44 44 44 43 43 43 43 43 44 44 44 45 45 45 45 45 46 46 47 47 47 48 48 48 49 49 49 50 50 49 48 48 47 47
43 44 45 46 46 46 45 45 45 44 43 43 43 43 43 42 42 43 43 44 44 44 44 44 45 46 47 48 48 48 48 48 49 49 49 50 50 50 49 49 48 47 46 46
42 42 43 44 44 44 45 45 44 44 44 44 44 44 44 43 43 43 44 43 43 43 44 45 46 47 48 48 49 49 49 49 49 50 50 49 49 49 48 47 46 46 45 44
42 42 42 41 42 42 42 42 43 43 43 44 44 44 43 43 43 43 43 43 43 43 44 45 46 47 47 48 48 48 49 49 49 49 49 48 48 47 46 45 44 44 43 42
41 40 40 40 40 40 40 40 40 40 41 42 42 43 43 42 42 41 41 42 42 42 43 44 45 45 46 47 47 48 48 48 48 47 47 46 46 45 44 43 43 42 41 40
38 38 38 38 38 38 38 38 39 39 40 41 41 41 41 41 41 41 41 41 42 42 42 42 43 44 44 45 46 46 46 46 45 44 44 44 43 42 42 41 40 39 38 37
37 37 37 37 37 37 37 38 38 38 38 39 39 39 39 40 40 40 40 41 41 42 41 41 42 42 43 43 43 43 43 43 42 41 40 40 39 39 38 38 37 37 36 34
36 37 37 37 37 38 38 38 38 38 38 38 38 38 39 39 39 39 39 40 40 40 40 40 41 40 41 41 40 40 40 39 39 39 38 37 37 36 36 35 35 34 33 32
37 38 38 39 39 39 39 39 39 39 39 39 38 38 38 38 39 39 38 38 39 39 39 39 39 39 39 39 38 38 38 37 37 37 37 36 35 34 33 32 32 31 30 30
38 39 39 39 39 39 38 38 39 39 39 38 38 39 39 39 39 39 39 38 37 38 38 38 38 38 38 38 37 37 37 36 36 35 34 33 33 32 31 30 30 29 29 28
37 38 38 38 39 39 39 40 39 39 39 39 39 40 40 40 40 39 38 38 38 38 37 37 37 37 37 37 37 36 35 34 33 32 31 31 30 30 29 29 28 27 27 26
38 39 39 40 40 40 40 40 40 40 40 40 40 40 40 40 39 38 38 38 38 37 36 35 35 35 36 35 34 33 32 32 31 30 29 28 27 27 27 26 25 25 25 24
40 40 40 40 40 41 41 40 40 39 40 40 39 39 39 38 38 38 38 37 36 36 35 34 34 34 33 33 31 30 30 29 28 27 27 26 26 25 25 24 23 23 23 22
Wind_Direction
301 298 296 294 289 284 282 279 276 272 270 270 272 270 267 266 266 266 266 266 268 269 270 269 269 269 269 270 271 272 273 274 275 276 277 278 279 279 279 280 281 281 282 282
297 296 294 292 291 287 283 281 278 275 273 273 273 274 272 271 271 271 270 270 270 271 271 271 271 270 270 271 272 273 274 275 276 277 278 279 279 280 281 281 282 282 283 283
294 292 291 290 290 289 287 285 282 279 276 275 274 274 274 273 273 273 273 272 272 272 273 273 273 272 271 272 273 274 274 275 276 277 279 279 280 281 282 282 282 283 284 284
291 291 289 292 290 288 286 285 284 281 279 277 277 276 276 275 274 274 275 274 273 274 274 274 274 274 273 273 274 274 275 275 276 277 279 280 281 282 282 283 284 284 284 283
289 289 289 289 288 287 285 284 282 281 280 280 278 278 277 277 276 276 275 275 275 275 275 275 275 275 274 274 275 275 275 276 277 278 279 281 281 282 283 283 284 284 284 284
288 287 287 289 287 285 284 283 282 281 280 280 279 279 278 277 277 277 276 275 276 276 276 276 275 276 276 276 276 276 276 277 278 279 280 281 282 283 283 284 284 285 285 285
285 285 285 287 286 285 282 283 282 281 281 281 280 278 278 277 276 277 276 276 276 276 277 277 277 277 277 276 277 277 278 278 278 279 281 282 282 283 284 285 285 285 285 285
283 283 284 284 283 283 282 281 281 281 282 281 280 279 278 277 277 278 277 277 276 277 277 277 277 277 277 277 277 277 278 279 280 280 281 282 283 284 284 285 285 285 285 285
280 281 281 281 281 281 280 280 280 280 280 280 280 279 279 278 278 278 277 277 277 277 277 277 276 277 277 277 277 278 279 279 280 280 281 283 283 284 285 285 285 285 285 285
278 278 278 278 279 279 279 278 278 279 279 279 280 280 279 278 278 278 278 278 278 278 278 278 277 277 277 278 278 278 279 280 281 281 282 283 284 285 285 285 285 285 285 285
277 277 277 277 278 278 278 278 278 278 278 279 279 279 279 278 278 278 278 278 278 278 278 278 277 276 276 277 277 278 279 280 281 282 283 283 284 285 285 285 286 286 286 287
277 277 277 278 278 277 277 277 277 278 278 278 278 278 278 278 278 279 278 278 278 278 278 277 277 276 276 276 277 278 280 281 281 282 283 284 284 285 286 286 286 286 287 288
275 276 276 277 277 277 278 278 277 277 277 278 278 279 279 278 278 278 278 278 277 277 277 277 277 277 277 277 278 279 281 281 282 283 284 285 285 285 285 285 286 287 287 288
275 275 276 276 276 277 277 278 278 278 278 278 279 280 280 280 280 279 279 278 278 277 277 277 277 277 278 278 279 280 281 282 283 283 284 285 285 285 285 285 286 286 287 288
274 274 275 275 275 276 277 278 278 278 278 279 280 281 281 281 281 280 280 279 278 278 277 277 277 278 279 279 280 281 282 283 283 284 284 285 285 285 286 286 286 286 286 286
274 274 275 275 276 277 277 278 278 278 279 279 280 280 281 281 281 280 279 279 279 278 278 277 278 278 279 279 280 281 282 283 283 284 285 285 285 286 286 286 286 286 286 286
274 276 277 277 277 278 278 278 278 278 278 279 280 280 281 281 280 280 280 279 279 279 279 279 279 279 280 280 280 281 282 283 283 284 284 285 285 286 286 286 286 286 286 285
274 276 278 278 278 278 278 279 279 279 278 278 279 280 280 281 281 281 280 279 279 279 279 279 280 280 281 281 281 281 282 283 283 283 284 284 285 285 286 286 286 286 285 285
276 277 278 279 279 279 280 280 279 279 279 278 278 280 280 280 281 280 280 279 279 279 280 280 280 280 280 281 282 282 283 284 283 283 284 284 285 285 285 285 286 285 284 284
277 277 278 279 279 280 280 281 281 280 280 279 280 280 280 279 280 280 280 280 280 280 280 280 281 282 282 282 283 283 284 284 284 284 284 284 284 284 284 284 284 284 283 282
277 277 278 279 279 280 281 282 282 282 281 281 281 281 281 281 282 282 282 281 281 281 281 282 283 283 284 284 284 285 285 285 285 284 284 284 283 283 283 283 282 281 281 280
276 277 277 277 279 280 282 283 284 284 283 283 283 283 282 282 282 282 283 283 282 282 282 283 283 283 284 285 285 286 286 285 285 285 284 284 283 283 283 282 281 280 279 279
277 278 279 279 280 281 282 283 284 284 284 284 283 283 283 283 283 283 283 283 283 283 283 283 283 284 284 286 287 286 286 285 285 284 283 283 283 282 281 281 280 280 279 278
278 279 279 280 281 282 283 283 283 283 284 284 283 283 283 284 284 284 283 282 283 283 284 284 284 285 285 286 287 286 286 285 284 283 283 282 281 280 281 280 279 278 277 276
278 278 278 279 281 282 282 282 283 283 283 283 283 283 283 284 284 284 283 283 283 283 284 284 284 285 286 287 287 286 285 284 283 282 281 281 280 279 279 279 279 278 277 275
279 279 279 280 281 282 282 281 281 281 282 283 283 283 284 284 284 284 283 283 283 283 283 283 284 285 286 287 286 284 282 282 281 280 279 278 278 278 278 278 278 278 277 274
280 280 280 280 281 281 281 281 281 281 282 282 283 283 284 283 283 283 282 282 282 282 282 283 284 285 285 285 285 283 281 280 279 278 277 277 277 277 276 276 277 277 275 273
Height
5703 5701 5699 5699 5697 5696 5695 5694 5693 5693 5692 5692 5690 5689 5688 5688 5687 5687 5686 5686 5685 5684 5683 5682 5681 5680 5680 5679 5678 5677 5676 5675 5674 5673 5671 5670 5668 5667 5665 5663 5661 5659 5657 5654
5699 5696 5694 5693 5693 5691 5689 5688 5687 5686 5686 5685 5683 5682 5681 5680 5680 5679 5678 5677 5677 5676 5675 5673 5672 5671 5670 5669 5668 5667 5666 5665 5664 5662 5661 5659 5657 5655 5653 5651 5649 5647 5644 5642
5692 5690 5689 5688 5688 5685 5684 5682 5681 5680 5680 5678 5676 5675 5674 5673 5672 5671 5670 5669 5667 5666 5665 5664 5663 5661 5660 5659 5658 5656 5655 5654 5653 5651 5649 5648 5646 5644 5642 5639 5637 5635 5632 5630
5685 5684 5682 5684 5680 5678 5676 5675 5674 5672 5671 5670 5668 5667 5665 5664 5663 5662 5660 5659 5658 5656 5655 5654 5652 5651 5649 5648 5647 5645 5644 5643 5641 5640 5638 5636 5634 5632 5629 5627 5625 5622 5620 5617
5676 5674 5673 5674 5672 5669 5668 5667 5665 5663 5662 5661 5659 5658 5657 5655 5653 5652 5650 5649 5647 5646 5644 5643 5641 5639 5638 5636 5635 5634 5632 5631 5629 5628 5626 5624 5622 5620 5617 5615 5612 5610 5607 5605
5666 5664 5664 5665 5663 5660 5659 5657 5656 5654 5653 5651 5650 5649 5648 5645 5643 5641 5640 5638 5636 5634 5633 5631 5629 5627 5626 5624 5623 5622 5620 5619 5617 5615 5614 5612 5609 5607 5605 5602 5600 5597 5595 5592
5656 5653 5653 5654 5651 5649 5649 5648 5645 5643 5642 5640 5639 5638 5636 5634 5632 5630 5628 5626 5624 5623 5621 5619 5617 5615 5614 5612 5611 5609 5608 5606 5605 5603 5601 5599 5597 5594 5592 5589 5587 5584 5582 5579
5645 5643 5645 5642 5639 5638 5637 5635 5633 5631 5630 5629 5627 5625 5624 5622 5620 5618 5616 5614 5612 5611 5609 5607 5605 5603 5601 5600 5598 5597 5595 5594 5592 5590 5588 5586 5584 5581 5579 5576 5574 5571 5568 5566
5634 5634 5632 5629 5627 5625 5624 5622 5621 5619 5618 5616 5615 5613 5612 5610 5608 5606 5604 5602 5600 5598 5596 5594 5592 5590 5589 5587 5586 5584 5582 5580 5579 5577 5575 5572 5570 5568 5565 5562 5560 5557 5555 5552
5620 5620 5618 5615 5614 5612 5611 5609 5607 5606 5605 5603 5602 5601 5599 5597 5595 5593 5591 5589 5587 5585 5584 5582 5580 5578 5576 5574 5573 5571 5569 5567 5565 5563 5561 5559 5556 5554 5551 5549 5546 5543 5541 5538
5605 5606 5603 5602 5600 5599 5597 5596 5594 5593 5592 5590 5588 5587 5586 5584 5582 5580 5578 5576 5574 5572 5570 5568 5567 5565 5563 5561 5559 5558 5556 5554 5552 5549 5547 5545 5542 5540 5537 5535 5531 5529 5526 5523
5592 5591 5589 5588 5586 5585 5583 5582 5581 5579 5578 5576 5574 5573 5572 5570 5568 5566 5564 5562 5560 5558 5556 5554 5553 5551 5549 5547 5546 5544 5542 5540 5538 5535 5533 5531 5528 5526 5523 5520 5517 5514 5511 5508
5577 5575 5574 5573 5571 5570 5569 5568 5566 5565 5564 5562 5561 5559 5557 5556 5554 5552 5550 5548 5546 5544 5542 5540 5538 5537 5535 5533 5532 5530 5528 5526 5524 5521 5519 5516 5514 5511 5509 5506 5503 5500 5496 5493
5561 5560 5559 5559 5557 5556 5554 5553 5552 5551 5549 5548 5546 5544 5543 5541 5539 5537 5535 5533 5531 5530 5528 5526 5524 5522 5520 5519 5517 5515 5514 5511 5509 5507 5504 5502 5499 5496 5494 5491 5489 5486 5482 5479
5547 5545 5545 5544 5543 5542 5540 5539 5538 5537 5535 5534 5532 5530 5528 5527 5525 5523 5521 5519 5517 5515 5513 5512 5510 5508 5506 5504 5503 5501 5499 5497 5494 5492 5489 5487 5484 5481 5478 5476 5473 5471 5468 5465
5533 5531 5530 5530 5529 5528 5526 5525 5524 5523 5521 5520 5518 5516 5514 5513 5511 5509 5507 5504 5503 5501 5499 5497 5495 5493 5491 5489 5488 5486 5484 5481 5479 5476 5474 5471 5468 5466 5463 5460 5458 5456 5453 5450
5519 5518 5517 5516 5515 5514 5512 5511 5510 5508 5507 5505 5504 5502 5500 5498 5497 5495 5493 5490 5488 5487 5485 5482 5480 5478 5476 5474 5472 5470 5468 5466 5463 5461 5458 5456 5453 5450 5448 5445 5443 5441 5438 5436
5505 5504 5503 5502 5501 5500 5499 5497 5496 5494 5493 5491 5489 5488 5486 5484 5482 5480 5478 5476 5474 5472 5470 5468 5466 5464 5461 5459 5457 5455 5453 5450 5448 5445 5443 5440 5438 5435 5433 5431 5428 5426 5424 5422
5491 5491 5490 5489 5487 5486 5485 5484 5482 5480 5478 5477 5475 5473 5472 5470 5468 5466 5464 5462 5460 5458 5456 5453 5451 5449 5447 5444 5442 5440 5438 5435 5433 5430 5427 5425 5423 5421 5418 5416 5414 5412 5410 5409
5478 5478 5477 5476 5475 5473 5472 5470 5469 5467 5465 5463 5461 5460 5458 5456 5454 5452 5450 5448 5446 5443 5442 5439 5437 5435 5432 5430 5427 5425 5423 5420 5418 5415 5413 5411 5409 5407 5405 5402 5401 5399 5397 5396
5466 5465 5464 5463 5462 5461 5459 5458 5456 5454 5452 5450 5448 5446 5444 5443 5441 5438 5436 5435 5433 5430 5428 5426 5423 5421 5418 5416 5413 5411 5408 5406 5403 5401 5399 5397 5395 5393 5391 5390 5388 5386 5385 5384
5454 5453 5452 5451 5450 5449 5447 5445 5443 5441 5439 5437 5435 5433 5431 5429 5427 5425 5423 5421 5419 5416 5414 5412 5410 5407 5405 5402 5400 5397 5395 5392 5390 5388 5386 5384 5382 5381 5379 5378 5376 5375 5374 5373
5441 5440 5439 5438 5437 5435 5434 5432 5430 5428 5426 5424 5422 5420 5418 5416 5414 5412 5411 5409 5405 5403 5401 5399 5397 5394 5392 5389 5387 5385 5382 5380 5378 5376 5374 5372 5371 5369 5368 5367 5365 5364 5364 5363
5429 5428 5426 5425 5424 5422 5421 5419 5417 5415 5413 5411 5409 5407 5405 5403 5402 5399 5397 5395 5393 5391 5389 5387 5384 5382 5379 5377 5375 5373 5370 5368 5366 5364 5363 5361 5360 5359 5358 5357 5355 5355 5354 5353
5416 5414 5413 5412 5410 5409 5407 5405 5404 5402 5400 5398 5397 5394 5392 5390 5388 5386 5384 5382 5380 5378 5376 5374 5372 5369 5367 5365 5363 5361 5359 5357 5355 5353 5352 5351 5350 5349 5348 5347 5346 5345 5345 5344
5403 5402 5400 5399 5397 5395 5393 5392 5390 5389 5387 5385 5383 5381 5378 5376 5374 5373 5371 5369 5367 5365 5363 5361 5359 5357 5355 5353 5351 5349 5348 5346 5345 5343 5342 5341 5340 5339 5338 5338 5337 5337 5336 5336
5390 5388 5387 5385 5384 5381 5379 5378 5376 5375 5373 5371 5369 5368 5365 5363 5361 5360 5358 5356 5355 5353 5351 5349 5347 5346 5344 5342 5340 5339 5337 5336 5335 5334 5333 5332 5331 5330 5330 5329 5329 5329 5328 5328